User: anonymous   Login
Location: Unspecified
(0.0000°N, 0.0000°E)
Time: 20:04:48
(UTC+00:00)
Language:

TBA - TO BE ASSIGNED - Orbit

View from above orbital plane
View from above orbital plane
View from above satellite
View from above satellite

Ground track
Ground track

The orbit is defined by the following mean orbital elements,

1 67376U          26145.45959227 +.00000000 +00000-0 +73697-4 0 00009
2 67376  97.8037 144.4272 0003142 182.0098 178.1106 14.86342258    04
Epoch (UTC): 25 May 2026 11:01:48
Eccentricity: 0.0003142
inclination: 97.8037°
perigee height: 607 km
apogee height: 612 km
right ascension of ascending node: 144.4272°
argument of perigee: 182.0098°
revolutions per day: 14.86342258
mean anomaly at epoch: 178.1106°

The dashed part of the orbit path shows where the satellite is in the earth's shadow,  

DLR